Location: Taipo
(41.0000°S, 175.9500°E)
Time: 11:48:37
(UTC+00:00)

Cosmos 1633 Rocket - Pass Details

Date: 18 April 2024
Orbit: 605 x 619 km, 82.5° (Epoch: 24 May)

Event Time Altitude Azimuth Distance (km) Brightness Sun altitude
Exits shadow 16:37:21 35° 178° (S) 1,028 4.2 -25.7°
Drops below altitude 10° 16:39:58 10° 174° (S) 2,022 5.8 -25.3°
Sets 16:42:14 0° 173° (S) 2,937 6.7 -24.8°
